Starlink 5410

operational
NORAD ID: 54807 Int'l Des: 2022-175 Owner: SPXS Country: US Constellation: starlink
LEOCIRCULAR

关于 Starlink 5410

正在加载描述...

实时位置

正在加载3D地球...

即将过境

高度历史

Altitude vs Time

uPlot chart will show altitude changes over time

两行轨道根数

1 54807U 22175BB 25340.68138991 .00025145 00000-0 15905-2 0 9999
2 54807 53.2173 86.2834 0001372 80.0973 280.0174 15.08882983166094
Epoch: Dec 6, 2025 • Age: 23 hours

当前状态

高度 541.0 km
速度 7.59 km/s
星下点 -3.16°S, 43.63°W
发射日期 Dec 17, 2022
运行时间 2.9 years
类型 internet

技术详情

分类 Payload
质量 305.00 kg
干质量 290.00 kg
总质量 305.00 kg
长度 0.20 m
直径 2.80 m
跨度 9.00 m
形状 Box + pan
制造商 SPXS
平台类型 Starlink
阶段状态 In Orbit
所有者/国家 SPXS/US

大型星座

Loading constellations...